Regional Weather Roundup
Issued by NWS

Home | Current Version | Previous Version | Text Only | Print | Product List | Glossary On
Versions: 1 2 3 4 5 6 7 8 9 10 11 12 13 14 15 16 17 18 19 20 21 22 23 24 25 26 27 28 29 30 31 32 33 34 35 36 37 38 39 40 41 42 43 44 45 46 47 48 49 50
000
ASUS44 KFWD 241315
RWRTX
NORTH TEXAS HOURLY WEATHER ROUNDUP
NATIONAL WEATHER SERVICE FORT WORTH TX
800 AM CDT THU APR 24 2014

NOTE: "FAIR" INDICATES FEW OR NO CLOUDS BELOW 12,000 FEET WITH NO
SIGNIFICANT WEATHER AND/OR OBSTRUCTIONS TO VISIBILITY.

TXZ118-119-241400-
DALLAS/FORT WORTH METROPLEX

CITY           SKY/WX    TMP DP  RH WIND       PRES   REMARKS
DFW AIRPORT    PTSUNNY   68  61  78 S20G29    29.77F
DALLAS LOVE    PTSUNNY   68  60  75 S21G26    29.79R
FTW MEACHAM    PTSUNNY   67  61  81 S20       29.76F
DAL-EXECUTIVE  CLOUDY    68  61  78 S10G24    29.80R
FTW-ALLIANCE   PTSUNNY   67  61  81 S16G25    29.75F
FTW-NAS-JRB    MOSUNNY   69  59  70 S15G37    29.82F
FTW-SPINKS     PTSUNNY   66  61  82 S14G24    29.82R
ARLINGTON      CLOUDY    67  61  81 S14G21    29.80R
ADDISON        PTSUNNY   68  61  77 S12G26    29.81R
MESQUITE       PTSUNNY   66  63  88 S12G20    29.83R
LANCASTER      PTSUNNY   66  60  83 S7        29.82R
$$

TXZ091>094-102>105-117-120-121-131>134-241400-
NORTH CENTRAL TEXAS

CITY           SKY/WX    TMP DP  RH WIND       PRES   REMARKS
SHRMAN/DENISON PTSUNNY   65  60  82 S20G29    29.74R
GAINESVILLE    CLOUDY    65  61  86 S16G23    29.74S
BOWIE          MOSUNNY   66  62  86 S15G21    29.73R
BRIDGEPORT     SUNNY     66  59  78 S10G17    29.75R
DECATUR        MOSUNNY   65  61  87 S18G26    29.75R
DENTON         PTSUNNY   67  61  81 S18G31    29.75S
MCKINNEY       CLOUDY    66  63  88 S17G24    29.77R
GREENVILLE     LGT RAIN  66  61  82 S12       29.81R
ROCKWALL       CLOUDY    66  63  89 S12       29.80R
TERRELL        PTSUNNY   69  65  86 SW13      29.83R
WAXAHACHIE     CLOUDY    65  62  90 S8        29.82R
CLEBURNE       CLOUDY    64  64 100 S12       29.84R
GRANBURY       MOSUNNY   68  61  79 S13       29.80S
$$

TXZ083>090-098>101-113>116-127>130-139>142-154-155-241400-
WESTERN NORTH TEXAS

CITY           SKY/WX    TMP DP  RH WIND       PRES   REMARKS
WICHITA FALLS  SUNNY     68  62  81 SW15      29.68R
WF-KICKAPOO    SUNNY     68  62  81 SW12      29.71R
VERNON         MOSUNNY   64  47  53 NW24G31   29.76R
ABILENE        SUNNY     66  60  81 S6        29.80R HAZE
ABILENE-DYESS  SUNNY     69  59  70 W9        29.80R
BRECKENRIDGE   SUNNY     71  60  68 SW13      29.76R
GRAHAM         SUNNY     69  61  76 S8        29.73R
MINERAL WELLS  SUNNY     66  60  81 S12       29.76R
STEPHENVILLE   MOSUNNY   64  59  83 S9        29.82S
COMANCHE       CLOUDY    66  59  78 S8        29.81R
BROWNWOOD      CLOUDY    66  59  77 S9        29.82F
COLEMAN        SUNNY     64  58  80 SW3       29.83R
BRADY          SUNNY     66  61  82 NW5       29.85R
$$

TXZ143>147-156>162-174-175-241400-
CENTRAL TEXAS

CITY           SKY/WX    TMP DP  RH WIND       PRES   REMARKS
WACO           CLOUDY    66  63  88 S12       29.82R
WACO-TSTC      PTSUNNY   66  63  88 S12       29.82R
WACO-MCGREGOR  PTSUNNY   64  59  82 S9G16     29.83R
HILLSBORO      PTSUNNY   67  62  84 S15       29.81R
CORSICANA      SUNNY     67  62  84 S15       29.82R
MEXIA          SUNNY     65  63  93 S9G16     29.82S
HEARNE         MOSUNNY   67  64  90 SE9G17    29.83S
CAMERON        MOSUNNY   67  64  90 S6        29.82R
TEMPLE         CLOUDY    64  59  82 S10       29.86R
KILLEEN        CLOUDY    66  63  88 S13       29.82R
KILLEEN-SKYLRK MOSUNNY   66  59  77 S8        29.81R
FORT HOOD      CLOUDY    68  62  81 S8        29.82R
GATESVILLE     MOSUNNY   66  63  88 S8        29.84R
HAMILTON       CLOUDY    66  62  87 S17G25    29.83R
LAMPASAS       CLOUDY    64  62  90 S3        29.82R
$$

TXZ095>097-106>112-122>126-135>138-148>153-164>167-241400-
EAST TEXAS

CITY           SKY/WX    TMP DP  RH WIND       PRES   REMARKS
PARIS          MOSUNNY   66  61  82 S12       29.79S
SULPHUR SPRNGS CLOUDY    68  63  82 S12       29.82R
CLARKSVILLE    MOSUNNY   66  63  91 SE9       29.79F
MOUNT PLEASANT CLOUDY    66  64  91 SE9       29.84S
GILMER         CLOUDY    68  64  88 S8        29.85S
MINEOLA        PTSUNNY   68  64  88 S7        29.83S
TYLER          PTSUNNY   68  62  81 S10       29.83R
LONGVIEW       PTSUNNY   68  62  81 S12       29.85R
MARSHALL       CLOUDY    66  63  90 SE5       29.88S
ATHENS         CLOUDY    64  63  94 S8        29.83R
PALESTINE      PTSUNNY   66  61  84 SE9       29.86S
JACKSONVILLE   PTSUNNY   66  62  87 S12G17    29.87S
HENDERSON      MOSUNNY   67  63  85 S8        29.86S
NACOGDOCHES    CLOUDY    66  63  88 S9        29.88S
LUFKIN         CLOUDY    70  65  84 S8        29.89R
$$

SUPPLEMENTAL OBSERVATIONS (CENTRAL)

CITY           SKY/WX    TMP DP  RH WIND       PRES   REMARKS
LAKE TEXOMA      N/A     64  63  94 S14         N/A
CADDO GRASSLND   N/A     68  63  83 S14G22      N/A
PAT MAYSE LAKE   N/A     66  63  88 SE16        N/A
GREENVILLE       N/A     66  61  82 S12G21      N/A
CEDAR HILL       N/A     66  61  82 S13G21      N/A
ATHENS           N/A     68  63  83 S15         N/A
PALESTINE        N/A     68  63  83 S10         N/A
LAKE LIMESTONE   N/A     68  64  88 S5          N/A
MCGREGOR         N/A     66  63  88 S13         N/A
TEMPLE           N/A     66  61  82 S8          N/A
$$

SUPPLEMENTAL OBSERVATIONS (WEST)

CITY           SKY/WX    TMP DP  RH WIND       PRES   REMARKS
MILLERS CREEK    N/A     64  45  48 NW17G28     N/A
POSSUM KINGDOM   N/A    N/A N/A N/A S10         N/A
LBJ GRASSLAND    N/A     66  61  82 S14         N/A
GRANBURY         N/A     68  61  77 S14         N/A
COMANCHE         N/A     66  57  72 S13         N/A
HAMBY            N/A     66  61  82 SW6         N/A
IVIE RESERVOIR   N/A     66  61  82 S2          N/A
COLORADO BEND    N/A     64  59  82 S7          N/A
$$

SUPPLEMENTAL OBSERVATIONS (EAST)

CITY           SKY/WX    TMP DP  RH WIND       PRES   REMARKS
CLARKSVILLE      N/A     66  61  82 S9          N/A
TEXARKANA        N/A     63  59  88 SE2         N/A
GILMER           N/A     68  63  83 S7          N/A
HENDERSON        N/A     68  63  83 S10         N/A
N SABINE NF      N/A     64  63  94 MISG        N/A
S SABINE NF      N/A     70  64  83 S3          N/A
$$

SUPPLEMENTAL OBSERVATIONS ARE A COLLECTION OF AUTOMATED INSTRUMENTS
THAT ARE MAINTAINED BY A VARIETY OF FEDERAL AND STATE AGENCIES.
CERTAIN ELEMENTS...SUCH AS HUMIDITY VALUES AND SUSTAINED WIND
SPEEDS...MAY BE APPROXIMATED.




USA.gov is the U.S. government's official web portal to all federal, state and local government web resources and services.